Hourly Data Report for October 19, 2015

All times are specified in Local Standard Time (LST). Add 1 hour to adjust for Daylight Saving Time where and when it is observed.

KUGLUKTUK A
NUNAVUT

67°49'00.000" N
115°08'38.000" W
22.60 m
2300903
71938
YCO

Download Data

Hourly Data (October 2015)
Hourly Data Report for October 19, 2015
Temp Definition
°C
Dew Point Temp Definition
°C
Rel Hum Definition
%
Wind Dir Definition
10's deg

Wind Spd Definition
km/h
Visibility Definition
km
Stn Press Definition
kPa
Hmdx Definition


Wind Chill Definition


Weather Definition


TIME
00:00 Legend Double Dagger -12.5 -15.1 81 17 18 24.1 101.77   -21 LegendNANA
01:00 Legend Double Dagger -12.9 -15.5 81 17 18 24.1 101.77   -21 LegendNANA
02:00 Legend Double Dagger -12.6 -16.2 75 14 20 24.1 101.74   -21 Mainly Clear
03:00 Legend Double Dagger -13.7 -16.5 80 20 3 24.1 101.74   -16 LegendNANA
04:00 Legend Double Dagger -12.8 -16.2 76 14 11 24.1 101.69   -19 LegendNANA
05:00 Legend Double Dagger -13.1 -16.3 77 13 16 24.1 101.65   -21 Mainly Clear
06:00 Legend Double Dagger -12.8 -16.4 75 15 14 24.1 101.60   -20 LegendNANA
07:00 Legend Double Dagger -13.2 -16.7 75 11 3 24.1 101.54   -15 LegendNANA
08:00 Legend Double Dagger -13.7 -17.2 75 10 7 24.1 101.49   -18 Clear
09:00 Legend Double Dagger -12.5 -16.4 73 11 7 24.1 101.43   -17 LegendNANA
10:00 Legend Double Dagger -10.5 -15.5 67 14 6 24.1 101.37   -14 LegendNANA
11:00 Legend Double Dagger -7.5 -13.0 65 21 14 24.1 101.29   -13 Mainly Clear
12:00 Legend Double Dagger -5.6 -11.4 64 21 19 24.1 101.18   -12 LegendNANA
13:00 Legend Double Dagger -4.4 -10.2 64 20 23 24.1 101.11   -11 LegendNANA
14:00 Legend Double Dagger -4.6 -9.8 67 20 19 24.1 101.06   -11 Mostly Cloudy
15:00 Legend Double Dagger -4.0 -8.7 70 23 22 24.1 101.00   -11 LegendNANA
16:00 Legend Double Dagger -3.9 -8.4 71 23 28 24.1 101.00   -11 LegendNANA
17:00 Legend Double Dagger -4.2 -8.3 73 19 40 24.1 100.88   -13 Mostly Cloudy
18:00 Legend Double Dagger -4.6 -8.4 75 19 23 24.1 100.87   -12 LegendNANA
19:00 Legend Double Dagger -3.9 -8.1 73 21 33 24.1 100.86   -12 Snow
20:00 Legend Double Dagger -3.7 -7.9 73 21 28 24.1 100.86   -11 Cloudy
21:00 Legend Double Dagger -3.6 -7.4 75 21 25 24.1 100.83   -11 LegendNANA
22:00 Legend Double Dagger -3.4 -7.2 75 21 25 24.1 100.81   -10 LegendNANA
23:00 Legend Double Dagger -3.2 -5.9 82 21 28 24.1 100.79   -10 Snow

Notes on Data Quality.

Legend

  • E = Estimated
  • M = Missing
  • NA = Not Available
  • ‡ = Partner data that is not subject to review by the National Climate Archives
Date modified: